DG7FDL-13 Weather Reports


time (UTC)temp
C
wind
direction
speed
KPH
gust
KPH
rain 1hr
cm
rain 24hr
cm
rain mn
cm
humidity
%
barometer
mb
20260507064143 9 0.0 3.2 0.00 0.00 0.00 1011.9
20260507063119 9 0.0 0.0 0.00 0.00 0.00 100 1011.8
20260507062026 8 0.0 3.2 0.00 0.00 0.00 99 1011.8
20260507061050 9 0.0 0.0 0.00 0.00 0.00 98 1011.6
20260507055030 8 0.0 0.0 0.00 0.00 0.00 99 1011.4
20260507054006 8 0.0 1.6 0.00 0.00 0.00 99 1011.3
20260507053031 9 0.0 0.0 0.00 0.00 0.00 97 1011.3
20260507052055 8 0 3.2 3.2 0.00 0.00 0.00 97 1011.1
20260507051050 9 0.0 0.0 0.00 0.00 0.00 95 1011.0
20260507050054 9 0.0 0.0 0.00 0.00 0.00 96 1010.7
20260507044046 8 0 1.6 3.2 0.00 0.00 0.00 97 1010.5
20260507043030 9 0.0 0.0 0.00 0.00 0.00 97 1010.4
20260507042106 8 0.0 1.6 0.00 0.00 0.00 97 1010.4
20260507041031 8 0.0 1.6 0.00 0.03 0.00 96 1010.3
20260507035314 9 0.0 1.6 0.00 0.03 0.00 97 1010.3
20260507034222 9 0.0 3.2 0.00 0.03 0.00 96 1010.2
20260507033158 9 0.0 1.6 0.00 0.03 0.00 96 1010.2
20260507032142 9 0.0 0.0 0.00 0.05 0.00 96 1010.0
20260507031119 9 0.0 1.6 0.00 0.05 0.00 96 1010.1
20260507030142 8 0.0 1.6 0.00 0.05 0.00 96 1010.0
20260507025118 8 0.0 3.2 0.00 0.05 0.00 97 1010.0
20260507024231 9 0.0 1.6 0.00 0.10 0.00 97 1010.0
20260507022142 9 0.0 1.6 0.00 0.13 0.00 98 1010.0
20260507021119 8 0.0 3.2 0.00 0.18 0.00 99 1010.0
20260507015342 9 0.0 3.2 0.00 0.23 0.00 99 1009.9
20260507013519 9 0 1.6 3.2 0.00 0.28 0.00 99 1009.7
20260507012202 9 0.0 1.6 0.00 0.30 0.00 100 1009.6
20260507011138 9 0.0 1.6 0.00 0.30 0.00 99 1009.6
20260507010142 9 0.0 0.0 0.00 0.30 0.00 97 1009.6
20260507005031 9 0.0 1.6 0.00 0.30 0.00 98 1009.6
20260507004026 9 0.0 0.0 0.00 0.30 0.00 97 1009.4
20260507003023 9 0 1.6 8.0 0.00 0.30 0.00 97 1009.5
20260507001919 10 0.0 3.2 0.00 0.30 0.00 97 1009.5
20260507000846 10 0.0 0.0 0.00 0.30 0.00 96 1009.4
20260506235403 10 0.0 3.2 0.00 0.30 0.00 95 1009.3
20260506234406 10 0.0 0.0 0.00 0.30 0.00 95 1009.1
20260506233246 10 0.0 1.6 0.00 0.30 0.00 94 1009.3
20260506232319 10 0.0 0.0 0.00 0.30 0.00 94 1009.1
20260506231207 10 0.0 1.6 0.00 0.30 0.00 93 1009.0
20260506230055 10 0.0 1.6 0.00 0.30 0.00 93 1008.9
20260506223958 10 0.0 0.0 0.00 0.30 0.00 92 1008.8
20260506222854 10 0.0 0.0 0.00 0.30 0.00 92 1008.7
20260506221919 10 0.0 0.0 0.00 0.33 0.00 92 1008.7
20260506221119 10 0.0 3.2 0.00 0.33 0.00 92 1008.8
20260506215207 10 0 1.6 3.2 0.00 0.33 0.33 92 1008.6
20260506214143 10 0.0 1.6 0.00 0.36 0.33 91 1008.6
20260506213139 10 0.0 0.0 0.00 0.36 0.33 91 1008.5
20260506212232 10 0.0 1.6 0.00 0.38 0.33 91 1008.6
20260506211139 10 0.0 3.2 0.00 0.38 0.33 90 1008.4
20260506210142 11 0.0 0.0 0.00 0.46 0.33 90 1008.5
20260506203920 11 0.0 0.0 0.00 0.48 0.33 91 1008.4
20260506202943 11 0 1.6 3.2 0.00 0.51 0.33 92 1008.4
20260506201852 11 0.0 0.0 0.00 0.53 0.33 93 1008.3
20260506200915 11 0 1.6 3.2 0.00 0.61 0.33 94 1008.2
20260506195031 11 0.0 3.2 0.00 0.64 0.33 94 1008.1
20260506194006 11 0.0 3.2 0.00 0.66 0.33 94 1008.0
20260506193120 11 0.0 1.6 0.00 0.71 0.33 93 1007.9
20260506192008 11 0.0 1.6 0.00 0.76 0.33 92 1007.8
20260506191051 11 0.0 1.6 0.00 0.81 0.33 92 1007.5
20260506185003 12 0 0.0 3.2 0.00 1.04 0.33 92 1007.0
20260506183919 12 0.0 1.6 0.00 1.19 0.33 92 1006.8
20260506183051 12 0 1.6 3.2 0.00 1.37 0.33 92 1006.7
20260506181938 12 0.0 3.2 0.00 1.50 0.33 92 1006.7
20260506181003 12 0 0.0 3.2 0.00 1.52 0.33 91 1006.5
20260506175159 13 0 1.6 3.2 0.00 1.55 0.33 86 1006.5
20260506174203 13 0 0.0 3.2 0.00 1.60 0.33 86 1006.3
20260506173138 13 0 1.6 3.2 0.00 1.60 0.33 87 1006.2
20260506170223 13 0.0 1.6 0.00 1.60 0.33 84 1005.8
20260506165118 14 0 3.2 6.4 0.00 1.60 0.33 83 1005.7
20260506162942 15 0 1.6 3.2 0.00 1.60 0.33 77 1005.4
20260506162055 16 0 1.6 6.4 0.00 1.60 0.33 73 1005.3
20260506160846 17 0.0 1.6 0.00 1.60 0.33 66 1005.1
20260506154407 17 0.0 3.2 0.00 1.60 0.33 66 1005.2
20260506150944 17 0 3.2 4.8 0.00 1.60 0.33 62 1005.1
20260506145938 17 0 3.2 3.2 0.00 1.60 0.33 60 1005.2
20260506144943 18 0 3.2 6.4 0.00 1.60 0.33 59 1005.3
20260506143918 18 0 3.2 3.2 0.00 1.60 0.33 62 1005.2
20260506142806 17 0 3.2 4.8 0.00 1.60 0.33 61 1005.3
20260506141830 17 0 3.2 4.8 0.00 1.60 0.33 62 1005.3
20260506140807 17 0.0 3.2 0.00 1.60 0.33 64 1005.3
20260506135119 17 0.0 1.6 0.00 1.60 0.33 64 1005.3
20260506134143 17 0 3.2 6.4 0.00 1.60 0.33 62 1005.4
20260506133111 17 0 3.2 6.4 0.00 1.60 0.33 61 1005.5
20260506132018 17 0 3.2 4.8 0.00 1.60 0.33 63 1005.4
20260506131022 17 0 1.6 4.8 0.00 1.60 0.33 63 1005.5
20260506125918 17 0 1.6 3.2 0.00 1.60 0.33 64 1005.6
20260506125030 16 0 3.2 6.4 0.00 1.60 0.33 63 1005.5
20260506123919 16 0 1.6 3.2 0.00 1.60 0.33 62 1005.4
20260506123002 17 0 3.2 3.2 0.00 1.60 0.33 60 1005.4
20260506122049 17 0 3.2 4.8 0.00 1.60 0.33 60 1005.4
20260506120943 16 0 3.2 8.0 0.00 1.60 0.33 64 1005.5
20260506115219 16 0 3.2 4.8 0.00 1.60 0.33 66 1005.4
20260506114144 17 0 1.6 4.8 0.00 1.60 0.33 64 1005.4
20260506113120 16 0 3.2 4.8 0.00 1.60 0.33 72 1005.5
20260506112143 15 0 3.2 4.8 0.00 1.60 0.33 76 1005.6
20260506111208 16 0 3.2 6.4 0.00 1.60 0.33 71 1005.6
20260506110230 16 0 1.6 3.2 0.00 1.60 0.33 80 1005.7
20260506105207 15 0 4.8 8.0 0.00 1.60 0.33 82 1005.8
20260506102007 14 45 3.2 6.4 0.00 1.60 0.33 85 1005.9
20260506100807 15 45 3.2 4.8 0.00 1.60 0.33 88 1006.0
20260506095003 14 0 3.2 8.0 0.00 1.60 0.33 88 1005.9
20260506093919 14 0.0 3.2 0.00 1.60 0.33 89 1005.9
20260506092915 13 0.0 1.6 0.00 1.60 0.33 93 1005.8
20260506091910 13 0.0 0.0 0.00 1.60 0.33 95 1005.8
20260506090807 13 0 3.2 4.8 0.00 1.60 0.33 94 1005.7
20260506085851 13 45 3.2 8.0 0.00 1.60 0.33 92 1005.7
20260506083919 13 0.0 3.2 0.00 1.60 0.33 96 1005.5
20260506081851 13 0 3.2 6.4 0.00 1.60 0.33 98 1005.5
20260506080914 13 0.0 3.2 0.00 1.60 0.33 100 1005.4
20260506073227 13 0.0 0.0 0.00 1.60 0.33 1005.3
20260506071138 13 0.0 1.6 0.00 1.60 0.33 1005.4
20260506070250 13 0.0 0.0 0.00 1.60 0.33 1005.3